Time,TemperatureF,DewpointF,PressureIn,WindDirection,WindDirectionDegrees,WindSpeedMPH,WindSpeedGustMPH,Humidity,HourlyPrecipIn,Conditions,Clouds,dailyrainin,SolarRadiationWatts/m^2,SoftwareType,DateUTC
2013-03-04 00:10:00,21.4,19.0,29.66,SSW,207,0.0,7.0,89,0.00,,,0.00,0,weatherlink.com 1.10,2013-03-04 05:10:00,
2013-03-04 00:25:00,21.4,19.0,29.66,SSW,207,0.0,4.0,89,0.00,,,0.00,0,weatherlink.com 1.10,2013-03-04 05:25:00,
2013-03-04 00:40:00,21.3,19.0,29.66,SE,144,0.0,3.0,89,0.00,,,0.00,0,weatherlink.com 1.10,2013-03-04 05:40:00,
2013-03-04 00:55:00,21.3,19.0,29.66,ESE,115,0.0,3.0,89,0.00,,,0.00,0,weatherlink.com 1.10,2013-03-04 05:55:00,
2013-03-04 01:10:00,21.3,19.0,29.66,WNW,284,0.0,4.0,89,0.00,,,0.00,0,weatherlink.com 1.10,2013-03-04 06:10:00,
2013-03-04 01:25:00,21.3,19.0,29.66,West,271,0.0,4.0,89,0.00,,,0.00,0,weatherlink.com 1.10,2013-03-04 06:25:00,
2013-03-04 01:40:00,21.4,19.0,29.66,WNW,286,0.0,3.0,89,0.00,,,0.00,0,weatherlink.com 1.10,2013-03-04 06:40:00,
2013-03-04 01:55:00,21.4,19.0,29.66,SSW,194,1.0,2.0,90,0.00,,,0.00,0,weatherlink.com 1.10,2013-03-04 06:55:00,
2013-03-04 02:10:00,21.4,19.0,29.66,SSW,213,0.0,3.0,89,0.00,,,0.00,0,weatherlink.com 1.10,2013-03-04 07:10:00,
2013-03-04 02:25:00,21.3,19.0,29.65,South,190,2.0,5.0,89,0.00,,,0.00,0,weatherlink.com 1.10,2013-03-04 07:25:00,
2013-03-04 02:40:00,21.2,19.0,29.66,East,92,0.0,4.0,89,0.00,,,0.00,0,weatherlink.com 1.10,2013-03-04 07:40:00,
2013-03-04 02:55:00,21.1,18.0,29.66,WNW,285,1.0,4.0,89,0.00,,,0.00,0,weatherlink.com 1.10,2013-03-04 07:55:00,
2013-03-04 03:10:00,21.0,18.0,29.66,ESE,113,0.0,3.0,89,0.00,,,0.00,0,weatherlink.com 1.10,2013-03-04 08:10:00,
2013-03-04 03:25:00,20.9,18.0,29.66,West,280,0.0,3.0,89,0.00,,,0.00,0,weatherlink.com 1.10,2013-03-04 08:25:00,
2013-03-04 03:40:00,20.9,18.0,29.67,South,178,0.0,3.0,89,0.00,,,0.00,0,weatherlink.com 1.10,2013-03-04 08:40:00,
2013-03-04 03:55:00,20.8,18.0,29.67,WSW,244,0.0,5.0,89,0.00,,,0.00,0,weatherlink.com 1.10,2013-03-04 08:55:00,
2013-03-04 04:10:00,20.7,18.0,29.67,SW,236,1.0,4.0,89,0.00,,,0.00,0,weatherlink.com 1.10,2013-03-04 09:10:00,
2013-03-04 04:25:00,20.6,18.0,29.66,NNW,338,0.0,5.0,89,0.00,,,0.00,0,weatherlink.com 1.10,2013-03-04 09:25:00,
2013-03-04 04:40:00,20.5,18.0,29.66,SW,234,0.0,3.0,90,0.00,,,0.00,0,weatherlink.com 1.10,2013-03-04 09:40:00,
2013-03-04 04:55:00,20.5,18.0,29.67,West,270,1.0,2.0,89,0.00,,,0.00,0,weatherlink.com 1.10,2013-03-04 09:55:00,
2013-03-04 05:10:00,20.5,18.0,29.68,WNW,292,1.0,3.0,89,0.00,,,0.00,0,weatherlink.com 1.10,2013-03-04 10:10:00,
2013-03-04 05:25:00,20.5,18.0,29.66,North,355,3.0,4.0,89,0.00,,,0.00,0,weatherlink.com 1.10,2013-03-04 10:25:00,
2013-03-04 05:40:00,20.4,18.0,29.67,SE,126,0.0,5.0,89,0.00,,,0.00,0,weatherlink.com 1.10,2013-03-04 10:40:00,
2013-03-04 05:55:00,20.4,18.0,29.67,SSW,208,0.0,10.0,89,0.00,,,0.00,0,weatherlink.com 1.10,2013-03-04 10:55:00,
2013-03-04 06:10:00,20.4,17.0,29.68,SE,142,0.0,2.0,88,0.00,,,0.00,0,weatherlink.com 1.10,2013-03-04 11:10:00,
2013-03-04 06:25:00,20.4,18.0,29.66,West,259,3.0,5.0,90,0.00,,,0.00,0,weatherlink.com 1.10,2013-03-04 11:25:00,
2013-03-04 06:40:00,20.4,18.0,29.67,West,280,0.0,5.0,89,0.00,,,0.00,9,weatherlink.com 1.10,2013-03-04 11:40:00,
2013-03-04 06:55:00,20.4,18.0,29.66,ESE,103,0.0,2.0,89,0.00,,,0.00,11,weatherlink.com 1.10,2013-03-04 11:55:00,
2013-03-04 07:10:00,20.4,17.0,29.68,South,191,0.0,5.0,88,0.00,,,0.00,16,weatherlink.com 1.10,2013-03-04 12:10:00,
2013-03-04 07:25:00,20.4,17.0,29.68,SE,144,1.0,4.0,88,0.00,,,0.00,25,weatherlink.com 1.10,2013-03-04 12:25:00,
2013-03-04 07:40:00,20.3,17.0,29.68,ENE,63,0.0,5.0,88,0.00,,,0.00,30,weatherlink.com 1.10,2013-03-04 12:40:00,
2013-03-04 07:55:00,20.4,17.0,29.68,West,263,1.0,5.0,88,0.00,,,0.00,42,weatherlink.com 1.10,2013-03-04 12:55:00,
2013-03-04 08:10:00,20.4,17.0,29.68,NW,319,1.0,9.0,87,0.00,,,0.00,54,weatherlink.com 1.10,2013-03-04 13:10:00,
2013-03-04 08:25:00,20.4,17.0,29.68,WSW,253,0.0,7.0,87,0.00,,,0.00,72,weatherlink.com 1.10,2013-03-04 13:25:00,
2013-03-04 08:41:00,20.5,17.0,29.68,WSW,246,0.0,7.0,87,0.00,,,0.00,91,weatherlink.com 1.10,2013-03-04 13:41:00,
2013-03-04 08:56:00,20.9,17.0,29.67,WNW,288,4.0,10.0,85,0.00,,,0.00,109,weatherlink.com 1.10,2013-03-04 13:56:00,
2013-03-04 09:11:00,21.2,18.0,29.67,WSW,252,5.0,5.0,86,0.00,,,0.00,116,weatherlink.com 1.10,2013-03-04 14:11:00,
2013-03-04 09:26:00,21.7,18.0,29.68,SSW,202,2.0,7.0,85,0.00,,,0.00,158,weatherlink.com 1.10,2013-03-04 14:26:00,
2013-03-04 09:41:00,22.7,18.0,29.67,West,268,1.0,7.0,82,0.00,,,0.00,190,weatherlink.com 1.10,2013-03-04 14:41:00,
2013-03-04 09:56:00,23.3,18.0,29.68,West,279,1.0,8.0,79,0.00,,,0.00,202,weatherlink.com 1.10,2013-03-04 14:56:00,
2013-03-04 10:11:00,24.2,19.0,29.67,West,259,1.0,9.0,80,0.00,,,0.00,244,weatherlink.com 1.10,2013-03-04 15:11:00,
2013-03-04 10:26:00,24.6,19.0,29.68,NE,34,0.0,7.0,79,0.00,,,0.00,229,weatherlink.com 1.10,2013-03-04 15:26:00,
2013-03-04 10:41:00,25.4,20.0,29.67,South,175,0.0,7.0,79,0.00,,,0.00,355,weatherlink.com 1.10,2013-03-04 15:41:00,
2013-03-04 10:56:00,26.1,20.0,29.67,WSW,256,0.0,7.0,77,0.00,,,0.00,306,weatherlink.com 1.10,2013-03-04 15:56:00,
2013-03-04 11:11:00,26.2,19.0,29.67,WSW,246,2.0,6.0,75,0.00,,,0.00,330,weatherlink.com 1.10,2013-03-04 16:11:00,
2013-03-04 11:26:00,25.7,19.0,29.67,WSW,243,0.0,6.0,76,0.00,,,0.00,281,weatherlink.com 1.10,2013-03-04 16:26:00,
2013-03-04 11:41:00,25.8,19.0,29.67,WSW,247,1.0,6.0,76,0.00,,,0.00,313,weatherlink.com 1.10,2013-03-04 16:41:00,
2013-03-04 11:56:00,25.7,19.0,29.67,NW,311,7.0,7.0,76,0.00,,,0.00,258,weatherlink.com 1.10,2013-03-04 16:56:00,
2013-03-04 12:11:00,25.6,19.0,29.67,NNW,327,0.0,5.0,76,0.00,,,0.00,304,weatherlink.com 1.10,2013-03-04 17:11:00,
2013-03-04 12:26:00,25.3,18.0,29.67,WNW,302,1.0,5.0,75,0.00,,,0.00,251,weatherlink.com 1.10,2013-03-04 17:26:00,
2013-03-04 12:41:00,25.2,19.0,29.67,West,267,2.0,4.0,76,0.00,,,0.00,264,weatherlink.com 1.10,2013-03-04 17:41:00,
2013-03-04 12:56:00,25.4,18.0,29.68,WNW,298,1.0,6.0,74,0.00,,,0.00,258,weatherlink.com 1.10,2013-03-04 17:56:00,
2013-03-04 13:11:00,24.9,18.0,29.68,SW,234,0.0,9.0,74,0.00,,,0.00,206,weatherlink.com 1.10,2013-03-04 18:11:00,
2013-03-04 13:26:00,25.6,18.0,29.68,SW,223,4.0,7.0,72,0.00,,,0.00,216,weatherlink.com 1.10,2013-03-04 18:26:00,
2013-03-04 13:41:00,25.9,18.0,29.68,WSW,252,1.0,5.0,71,0.00,,,0.00,216,weatherlink.com 1.10,2013-03-04 18:41:00,
2013-03-04 13:56:00,25.5,18.0,29.68,West,275,0.0,5.0,72,0.00,,,0.00,151,weatherlink.com 1.10,2013-03-04 18:56:00,
2013-03-04 14:11:00,24.8,18.0,29.69,West,267,0.0,7.0,74,0.00,,,0.00,134,weatherlink.com 1.10,2013-03-04 19:11:00,
2013-03-04 14:26:00,24.3,17.0,29.69,West,273,0.0,5.0,74,0.00,,,0.00,130,weatherlink.com 1.10,2013-03-04 19:26:00,
2013-03-04 14:41:00,24.2,17.0,29.70,NW,315,1.0,3.0,75,0.00,,,0.00,132,weatherlink.com 1.10,2013-03-04 19:41:00,
2013-03-04 14:56:00,24.5,17.0,29.70,WNW,294,1.0,4.0,74,0.00,,,0.00,144,weatherlink.com 1.10,2013-03-04 19:56:00,
2013-03-04 15:11:00,24.5,17.0,29.70,West,278,0.0,7.0,74,0.00,,,0.00,132,weatherlink.com 1.10,2013-03-04 20:11:00,
2013-03-04 15:26:00,24.2,17.0,29.70,SW,218,2.0,4.0,75,0.00,,,0.00,135,weatherlink.com 1.10,2013-03-04 20:26:00,
2013-03-04 15:41:00,24.1,18.0,29.70,WSW,239,0.0,6.0,77,0.00,,,0.00,171,weatherlink.com 1.10,2013-03-04 20:41:00,
2013-03-04 15:56:00,23.8,18.0,29.71,NNW,329,0.0,4.0,77,0.00,,,0.00,81,weatherlink.com 1.10,2013-03-04 20:56:00,
2013-03-04 16:11:00,23.4,18.0,29.72,SW,235,0.0,4.0,79,0.00,,,0.00,47,weatherlink.com 1.10,2013-03-04 21:11:00,
2013-03-04 16:27:00,22.7,17.0,29.73,SSW,210,1.0,4.0,80,0.00,,,0.00,46,weatherlink.com 1.10,2013-03-04 21:27:00,
2013-03-04 16:42:00,22.2,17.0,29.73,West,279,0.0,2.0,81,0.00,,,0.00,39,weatherlink.com 1.10,2013-03-04 21:42:00,
2013-03-04 16:57:00,21.9,17.0,29.74,NNE,24,0.0,2.0,82,0.00,,,0.00,39,weatherlink.com 1.10,2013-03-04 21:57:00,
2013-03-04 17:12:00,21.8,17.0,29.75,West,271,0.0,3.0,82,0.00,,,0.00,26,weatherlink.com 1.10,2013-03-04 22:12:00,
2013-03-04 17:27:00,21.6,17.0,29.75,WSW,237,0.0,2.0,82,0.00,,,0.00,9,weatherlink.com 1.10,2013-03-04 22:27:00,
2013-03-04 17:42:00,21.4,17.0,29.76,West,271,1.0,3.0,83,0.00,,,0.00,0,weatherlink.com 1.10,2013-03-04 22:42:00,
2013-03-04 17:57:00,21.2,17.0,29.78,WSW,242,0.0,3.0,84,0.00,,,0.00,0,weatherlink.com 1.10,2013-03-04 22:57:00,
2013-03-04 18:12:00,21.0,18.0,29.79,WSW,252,0.0,3.0,86,0.00,,,0.00,0,weatherlink.com 1.10,2013-03-04 23:12:00,
2013-03-04 18:27:00,20.9,18.0,29.79,WSW,247,1.0,1.0,87,0.00,,,0.00,0,weatherlink.com 1.10,2013-03-04 23:27:00,
2013-03-04 18:42:00,20.8,18.0,29.79,WSW,252,0.0,2.0,88,0.00,,,0.00,0,weatherlink.com 1.10,2013-03-04 23:42:00,
2013-03-04 18:57:00,20.7,18.0,29.80,NW,307,0.0,2.0,88,0.00,,,0.00,0,weatherlink.com 1.10,2013-03-04 23:57:00,
2013-03-04 19:12:00,20.7,18.0,29.80,South,175,0.0,5.0,88,0.00,,,0.00,0,weatherlink.com 1.10,2013-03-05 00:12:00,
2013-03-04 19:27:00,20.8,18.0,29.80,NW,315,0.0,1.0,88,0.00,,,0.00,0,weatherlink.com 1.10,2013-03-05 00:27:00,
2013-03-04 19:42:00,21.0,18.0,29.81,SSW,195,0.0,2.0,87,0.00,,,0.00,0,weatherlink.com 1.10,2013-03-05 00:42:00,
2013-03-04 19:57:00,21.2,18.0,29.81,SW,216,0.0,2.0,87,0.00,,,0.00,0,weatherlink.com 1.10,2013-03-05 00:57:00,
2013-03-04 20:12:00,21.3,18.0,29.81,SSW,207,0.0,1.0,88,0.00,,,0.00,0,weatherlink.com 1.10,2013-03-05 01:12:00,
2013-03-04 20:27:00,21.5,18.0,29.81,SSW,201,0.0,1.0,86,0.00,,,0.00,0,weatherlink.com 1.10,2013-03-05 01:27:00,
2013-03-04 20:42:00,21.7,18.0,29.81,SSE,154,0.0,2.0,85,0.00,,,0.00,0,weatherlink.com 1.10,2013-03-05 01:42:00,
2013-03-04 20:57:00,21.8,18.0,29.82,SSE,151,0.0,2.0,85,0.00,,,0.00,0,weatherlink.com 1.10,2013-03-05 01:57:00,
2013-03-04 21:12:00,22.1,18.0,29.82,SE,142,0.0,2.0,84,0.00,,,0.00,0,weatherlink.com 1.10,2013-03-05 02:12:00,
2013-03-04 21:27:00,22.3,18.0,29.82,SE,142,0.0,2.0,84,0.00,,,0.00,0,weatherlink.com 1.10,2013-03-05 02:27:00,
2013-03-04 21:42:00,22.4,18.0,29.82,SE,140,0.0,1.0,84,0.00,,,0.00,0,weatherlink.com 1.10,2013-03-05 02:42:00,
2013-03-04 21:57:00,22.5,18.0,29.82,SE,140,0.0,1.0,84,0.00,,,0.00,0,weatherlink.com 1.10,2013-03-05 02:57:00,
2013-03-04 22:12:00,22.5,18.0,29.83,SE,140,0.0,0.0,84,0.00,,,0.00,0,weatherlink.com 1.10,2013-03-05 03:12:00,
2013-03-04 22:27:00,22.5,18.0,29.83,SE,140,0.0,0.0,84,0.00,,,0.00,0,weatherlink.com 1.10,2013-03-05 03:27:00,
2013-03-04 22:42:00,22.6,19.0,29.84,SE,140,0.0,0.0,85,0.00,,,0.00,0,weatherlink.com 1.10,2013-03-05 03:42:00,
2013-03-04 22:57:00,22.7,19.0,29.84,SE,140,0.0,0.0,86,0.00,,,0.00,0,weatherlink.com 1.10,2013-03-05 03:57:00,
2013-03-04 23:12:00,22.7,19.0,29.84,SE,140,0.0,0.0,87,0.00,,,0.00,0,weatherlink.com 1.10,2013-03-05 04:12:00,
2013-03-04 23:27:00,22.6,20.0,29.85,SE,140,0.0,0.0,88,0.00,,,0.00,0,weatherlink.com 1.10,2013-03-05 04:27:00,
2013-03-04 23:42:00,22.6,20.0,29.85,SE,140,0.0,0.0,88,0.00,,,0.00,0,weatherlink.com 1.10,2013-03-05 04:42:00,
2013-03-04 23:57:00,22.7,20.0,29.86,SE,140,1.0,1.0,88,0.00,,,0.00,0,weatherlink.com 1.10,2013-03-05 04:57:00,